TimeMST,TemperatureF,Dew PointF,Humidity,Sea Level PressureIn,VisibilityMPH,Wind Direction,Wind SpeedMPH,Gust SpeedMPH,PrecipitationIn,Events,Conditions,WindDirDegrees,DateUTC
12:56 AM,-15.9,-20.9,78,30.66,10.0,NE,3.5,-,N/A,,Clear,50,2013-01-03 07:56:00
1:56 AM,-10.8,-15.9,78,30.63,10.0,South,3.5,-,N/A,,Clear,180,2013-01-03 08:56:00
2:56 AM,-11.9,-17.0,78,30.65,10.0,SE,4.6,-,N/A,,Clear,130,2013-01-03 09:56:00
3:56 AM,-10.8,-15.9,78,30.65,10.0,East,3.5,-,N/A,,Clear,90,2013-01-03 10:56:00
4:56 AM,-8.9,-13.9,79,30.66,10.0,WNW,3.5,-,N/A,,Clear,300,2013-01-03 11:56:00
6:56 AM,-6.0,-9.9,83,30.66,10.0,SE,4.6,-,N/A,,Clear,140,2013-01-03 13:56:00
7:56 AM,-8.9,-13.9,79,30.67,10.0,ENE,4.6,-,N/A,,Clear,70,2013-01-03 14:56:00
8:56 AM,-6.0,-10.8,79,30.68,10.0,Calm,Calm,-,N/A,,Clear,0,2013-01-03 15:56:00
9:56 AM,1.0,-2.9,83,30.64,10.0,East,3.5,-,N/A,,Clear,80,2013-01-03 16:56:00
10:56 AM,10.0,7.2,88,30.63,10.0,East,3.5,-,N/A,,Clear,100,2013-01-03 17:56:00
11:56 AM,6.1,2.1,84,30.63,10.0,WSW,3.5,-,N/A,,Clear,250,2013-01-03 18:56:00
12:56 PM,10.0,6.1,84,30.63,10.0,SSW,4.6,-,N/A,,Clear,210,2013-01-03 19:56:00
1:56 PM,14.0,3.0,62,30.58,10.0,Calm,Calm,-,N/A,,Clear,0,2013-01-03 20:56:00
2:56 PM,13.1,2.1,62,30.60,10.0,Calm,Calm,-,N/A,,Clear,0,2013-01-03 21:56:00
3:56 PM,4.1,-4.9,66,30.66,10.0,Calm,Calm,-,N/A,,Clear,0,2013-01-03 22:56:00
4:56 PM,7.2,1.0,76,30.63,10.0,Calm,Calm,-,0.00,,Clear,0,2013-01-03 23:56:00
5:56 PM,-6.0,-10.8,79,30.73,10.0,East,4.6,-,N/A,,Clear,100,2013-01-04 00:56:00
6:56 PM,-2.9,-8.0,79,30.67,10.0,ESE,5.8,-,N/A,,Clear,110,2013-01-04 01:56:00
7:56 PM,-4.0,-8.0,83,30.68,10.0,SE,3.5,-,N/A,,Clear,140,2013-01-04 02:56:00
8:56 PM,-6.0,-9.9,83,30.65,10.0,Calm,Calm,-,N/A,,Clear,0,2013-01-04 03:56:00
9:56 PM,-4.9,-8.9,83,30.61,10.0,Calm,Calm,-,N/A,,Clear,0,2013-01-04 04:56:00
10:56 PM,-8.9,-13.9,79,30.59,10.0,East,4.6,-,N/A,,Clear,100,2013-01-04 05:56:00
11:56 PM,-0.9,-6.0,79,30.57,10.0,Calm,Calm,-,N/A,,Clear,0,2013-01-04 06:56:00